TimeCDT,TemperatureF,Dew PointF,Humidity,Sea Level PressureIn,VisibilityMPH,Wind Direction,Wind SpeedMPH,Gust SpeedMPH,PrecipitationIn,Events,Conditions,WindDirDegrees,DateUTC
12:53 AM,69.1,66.0,90,29.90,10.0,Calm,Calm,-,N/A,,Clear,0,2013-07-02 05:53:00
1:53 AM,69.1,66.0,90,29.89,10.0,Calm,Calm,-,N/A,,Clear,0,2013-07-02 06:53:00
2:53 AM,68.0,66.0,93,29.90,9.0,Calm,Calm,-,N/A,,Clear,0,2013-07-02 07:53:00
3:53 AM,68.0,66.0,93,29.91,8.0,Calm,Calm,-,N/A,,Clear,0,2013-07-02 08:53:00
4:53 AM,66.9,64.9,93,29.92,9.0,Calm,Calm,-,N/A,,Scattered Clouds,0,2013-07-02 09:53:00
5:53 AM,66.9,64.0,90,29.94,9.0,Calm,Calm,-,N/A,,Clear,0,2013-07-02 10:53:00
6:53 AM,69.1,66.0,90,29.95,8.0,Calm,Calm,-,N/A,,Clear,0,2013-07-02 11:53:00
7:53 AM,72.0,66.9,84,29.97,10.0,Calm,Calm,-,N/A,,Clear,0,2013-07-02 12:53:00
9:53 AM,78.1,66.9,68,29.99,10.0,SSW,4.6,-,N/A,,Clear,210,2013-07-02 14:53:00
10:53 AM,82.0,66.0,58,29.99,10.0,Variable,5.8,-,N/A,,Partly Cloudy,0,2013-07-02 15:53:00
11:53 AM,82.9,64.9,54,29.99,10.0,SSW,8.1,-,N/A,,Scattered Clouds,200,2013-07-02 16:53:00
12:53 PM,84.0,64.0,51,29.98,10.0,West,8.1,-,N/A,,Partly Cloudy,260,2013-07-02 17:53:00
1:53 PM,84.0,64.0,51,29.97,10.0,SW,5.8,-,N/A,,Partly Cloudy,230,2013-07-02 18:53:00
2:53 PM,84.9,64.9,51,29.96,10.0,WNW,5.8,-,N/A,,Clear,290,2013-07-02 19:53:00
3:53 PM,84.0,64.9,53,29.97,10.0,West,5.8,-,N/A,,Clear,270,2013-07-02 20:53:00
4:53 PM,84.0,64.0,51,29.96,10.0,WNW,5.8,-,N/A,,Partly Cloudy,300,2013-07-02 21:53:00
5:53 PM,82.9,64.0,53,29.97,10.0,Variable,3.5,-,N/A,,Clear,0,2013-07-02 22:53:00
6:53 PM,82.0,64.9,56,29.99,10.0,WNW,4.6,-,N/A,,Clear,300,2013-07-02 23:53:00
7:53 PM,78.1,66.9,68,30.00,10.0,Calm,Calm,-,N/A,,Clear,0,2013-07-03 00:53:00
8:28 PM,75.2,66.2,73,30.02,10.0,Calm,Calm,-,N/A,,Partly Cloudy,0,2013-07-03 01:28:00
8:53 PM,75.0,66.9,76,30.01,10.0,Calm,Calm,-,N/A,,Clear,0,2013-07-03 01:53:00
9:53 PM,73.0,68.0,84,30.04,10.0,Calm,Calm,-,N/A,,Clear,0,2013-07-03 02:53:00
10:53 PM,73.9,69.1,85,30.03,10.0,Calm,Calm,-,N/A,,Clear,0,2013-07-03 03:53:00
11:53 PM,73.0,69.1,87,30.02,10.0,Calm,Calm,-,N/A,,Partly Cloudy,0,2013-07-03 04:53:00